Lyndonville, VT

6:16 PM EST on November 23, 2017 (GMT -0500)
Lyndonville

Weather History for KCDA - March, 2013

Change the Weather History Date:

Tuesday, March 19, 2013

  Actual Average (K1V4) Record (K1V4)
Temperature  
Mean Temperature 26 °F -  
Max Temperature 31 °F 35 °F 75 °F (2012)
Min Temperature 21 °F 18 °F -18 °F (1967)
Degree Days  
Heating Degree Days 39    
Moisture  
Dew Point 20 °F    
Average Humidity 78    
Maximum Humidity 89    
Minimum Humidity 30    
Precipitation  
Precipitation 0.00 in - - ()
Sea Level Pressure  
Sea Level Pressure 29.86 in    
Wind  
Wind Speed 7 mph (ESE)    
Max Wind Speed 15 mph    
Max Gust Speed 22 mph    
Visibility 3 miles    
Events Snow    
Averages and records for this station are not official NWS values.
T = Trace of Precipitation, MM = Missing Value Source: NWS Daily Summary

Daily Weather History Graph

Daily Weather History Graph

Search for Another Location

Airport or City:

Trip Planner

Search our weather history database for the weather conditions in past years. The results will help you decide how hot, cold, wet, or windy it might be!

Date:

Astronomy

Mar. 19, 2013 Rise Set
Actual Time 6:52 AM EDT 6:59 PM EDT
Civil Twilight 6:23 AM EDT 7:28 PM EDT
Nautical Twilight 5:49 AM EDT 8:02 PM EDT
Astronomical Twilight 5:14 AM EDT 8:37 PM EDT
Moon 11:27 AM EDT (3/19) 1:57 AM EDT (3/19)
Length of Visible Light 13h 04m
Length of Day
12h 06m
Waxing Crescent, 49% of the Moon is Illuminated
Mar 19
Waxing Crescent
Mar 19
First Quarter
Mar 27
Full
Apr 3
Last Quarter
Apr 10
New

Hourly Weather History & Observations

Time (EDT) Temp. Windchill Dew Point Humidity Pressure Visibility Wind Dir Wind Speed Gust Speed Precip Events Conditions
12:15 AM 27.7 °F 22.4 °F 1.2 °F 32% 30.11 in 10.0 mi SSE 4.6 mph - N/A   Mostly Cloudy
12:35 AM 28.0 °F 24.2 °F -0.2 °F 30% 30.10 in 10.0 mi SE 3.5 mph - N/A   Mostly Cloudy
1:15 AM 28.0 °F 22.8 °F 2.3 °F 33% 30.08 in 10.0 mi ESE 4.6 mph - N/A   Overcast
1:35 AM 28.4 °F 22.2 °F 1.2 °F 31% 30.07 in 10.0 mi SSE 5.8 mph - N/A   Overcast
1:55 AM 28.0 °F 19.3 °F 9.0 °F 45% 30.07 in 10.0 mi South 9.2 mph - N/A   Overcast
2:15 AM 25.5 °F 18.7 °F 18.5 °F 75% 30.07 in 4.0 mi SSW 5.8 mph - N/A Snow Light Snow
2:35 AM 24.8 °F 19.1 °F 20.3 °F 83% 30.05 in 2.0 mi South 4.6 mph - N/A Snow Light Snow
2:55 AM 24.8 °F 17.9 °F 21.0 °F 86% 30.05 in 1.2 mi South 5.8 mph - N/A Snow Light Snow
3:15 AM 24.6 °F 18.8 °F 21.2 °F 87% 30.04 in 1.0 mi SSE 4.6 mph - N/A Snow Snow
3:35 AM 24.4 °F 17.5 °F 21.2 °F 87% 30.02 in 0.8 mi South 5.8 mph - N/A Snow Snow
3:55 AM 24.4 °F 17.5 °F 21.2 °F 87% 30.02 in 0.8 mi South 5.8 mph - N/A Snow Snow
4:15 AM 24.3 °F 15.4 °F 21.0 °F 87% 30.01 in 1.2 mi SSE 8.1 mph - N/A Snow Light Snow
4:35 AM 24.4 °F 17.5 °F 21.2 °F 87% 30.00 in 1.8 mi SSE 5.8 mph - N/A Snow Light Snow
4:55 AM 24.4 °F 18.6 °F 21.2 °F 87% 30.00 in 1.5 mi SSE 4.6 mph - N/A Snow Light Snow
5:15 AM 24.6 °F 18.8 °F 21.6 °F 88% 29.98 in 1.8 mi SE 4.6 mph - N/A Snow Light Snow
5:35 AM 24.8 °F 19.1 °F 21.7 °F 88% 29.98 in 1.5 mi SSE 4.6 mph - N/A Snow Light Snow
5:55 AM 24.8 °F 20.5 °F 21.9 °F 89% 29.97 in 1.0 mi SSE 3.5 mph - N/A Snow Snow
6:15 AM 25.0 °F 19.3 °F 21.9 °F 88% 29.97 in 1.0 mi SSE 4.6 mph - N/A Snow Snow
6:35 AM 25.2 °F 18.3 °F 21.7 °F 87% 29.97 in 1.2 mi SE 5.8 mph - N/A Snow Light Snow
6:55 AM 25.3 °F 16.0 °F 22.1 °F 87% 29.96 in 1.0 mi SE 9.2 mph - N/A Snow Snow
7:15 AM 25.7 °F 15.7 °F 22.5 °F 88% 29.95 in 1.5 mi SE 10.4 mph - N/A Snow Light Snow
7:35 AM 26.2 °F 15.2 °F 21.9 °F 84% 29.95 in 1.5 mi SE 12.7 mph 21.9 mph N/A Snow Light Snow
7:55 AM 26.6 °F 18.2 °F 21.4 °F 81% 29.94 in 2.5 mi SE 8.1 mph 17.3 mph N/A Snow Light Snow
8:15 AM 27.5 °F 18.6 °F 20.3 °F 74% 29.93 in 4.0 mi SE 9.2 mph 20.7 mph N/A Snow Light Snow
8:35 AM 27.5 °F 17.4 °F 20.3 °F 74% 29.92 in 2.0 mi SE 11.5 mph 16.1 mph N/A Snow Light Snow
8:55 AM 28.4 °F 18.5 °F 19.8 °F 70% 29.91 in 10.0 mi SE 11.5 mph 18.4 mph N/A   Overcast
9:15 AM 28.4 °F 19.7 °F 19.2 °F 69% 29.90 in 10.0 mi SE 9.2 mph - N/A   Overcast
9:35 AM 29.1 °F 21.3 °F 18.5 °F 65% 29.89 in 10.0 mi SE 8.1 mph 17.3 mph N/A   Overcast
9:55 AM 29.8 °F 20.3 °F 18.5 °F 63% 29.88 in 10.0 mi ESE 11.5 mph 19.6 mph N/A   Overcast
10:15 AM 30.0 °F 20.0 °F 18.5 °F 62% 29.87 in 10.0 mi SE 12.7 mph 17.3 mph N/A   Overcast
10:35 AM 30.6 °F 19.8 °F 17.8 °F 59% 29.86 in 10.0 mi SE 15.0 mph 18.4 mph N/A   Overcast
10:55 AM 31.1 °F 20.9 °F 18.1 °F 59% 29.86 in 10.0 mi SE 13.8 mph 20.7 mph N/A Snow Light Snow
11:15 AM 30.7 °F 21.4 °F 18.7 °F 61% 29.86 in 5.0 mi SE 11.5 mph 19.6 mph N/A Snow Light Snow
11:35 AM 30.6 °F 20.7 °F 19.2 °F 63% 29.85 in 3.0 mi ESE 12.7 mph 21.9 mph N/A Snow Light Snow
11:55 AM 30.6 °F 22.4 °F 19.4 °F 63% 29.84 in 2.5 mi SE 9.2 mph 18.4 mph N/A Snow Light Snow
12:15 PM 30.2 °F 22.6 °F 20.5 °F 67% 29.85 in 1.5 mi SE 8.1 mph 17.3 mph N/A Snow Light Snow
12:35 PM 29.5 °F 23.4 °F 23.4 °F 78% 29.84 in 1.8 mi ENE 5.8 mph - N/A Snow Light Snow
12:55 PM 28.8 °F 21.7 °F 23.7 °F 81% 29.84 in 1.0 mi East 6.9 mph - N/A Snow Light Snow
1:15 PM 28.4 °F 22.2 °F 24.6 °F 86% 29.84 in 0.5 mi East 5.8 mph - N/A Snow Snow
1:35 PM 28.4 °F 22.2 °F 24.8 °F 86% 29.84 in 0.2 mi East 5.8 mph - N/A Snow Snow
1:55 PM 28.4 °F 21.2 °F 24.3 °F 84% 29.82 in 0.8 mi ESE 6.9 mph - N/A Snow Light Snow
2:15 PM 28.2 °F 19.5 °F 24.4 °F 86% 29.81 in 0.5 mi ESE 9.2 mph - N/A Snow Snow
2:35 PM 28.0 °F 18.6 °F 24.4 °F 86% 29.79 in 0.5 mi East 10.4 mph - N/A Snow Light Snow
2:55 PM 27.7 °F 19.6 °F 24.4 °F 88% 29.78 in 0.8 mi East 8.1 mph - N/A Snow Light Snow
3:15 PM 27.5 °F 19.3 °F 24.3 °F 88% 29.76 in 1.0 mi East 8.1 mph - N/A Snow Light Snow
3:35 PM 27.3 °F 19.1 °F 23.5 °F 86% 29.76 in 0.8 mi East 8.1 mph - N/A Snow Light Snow
3:55 PM 26.6 °F 20.0 °F 23.0 °F 86% 29.75 in 0.8 mi ENE 5.8 mph - N/A Snow Light Snow
4:15 PM 26.2 °F 19.6 °F 22.6 °F 86% 29.74 in 0.8 mi ENE 5.8 mph - N/A Snow Light Snow
4:35 PM 26.4 °F 17.3 °F 22.1 °F 84% 29.73 in 1.2 mi East 9.2 mph - N/A Snow Light Snow
4:55 PM 25.7 °F 19.0 °F 21.4 °F 84% 29.72 in 1.8 mi NNE 5.8 mph - N/A Snow Light Snow
5:15 PM 25.2 °F 18.3 °F 21.2 °F 85% 29.72 in 1.2 mi ENE 5.8 mph - N/A Snow Light Snow
5:35 PM 24.8 °F 16.9 °F 21.2 °F 86% 29.72 in 1.0 mi NE 6.9 mph - N/A Snow Light Snow
5:55 PM 24.8 °F 17.9 °F 21.2 °F 86% 29.72 in 1.2 mi NNE 5.8 mph - N/A   Overcast
6:15 PM 24.8 °F 16.9 °F 21.0 °F 86% 29.73 in 3.0 mi NNE 6.9 mph - N/A Snow Light Snow
6:35 PM 24.8 °F 19.1 °F 20.3 °F 83% 29.73 in 3.0 mi NNE 4.6 mph - N/A Snow Light Snow
6:55 PM 24.6 °F 17.7 °F 20.3 °F 84% 29.72 in 4.0 mi NE 5.8 mph - N/A Snow Light Snow
7:15 PM 23.9 °F 16.8 °F 19.6 °F 84% 29.73 in 3.0 mi NNE 5.8 mph - N/A Snow Light Snow
7:35 PM 23.9 °F 18.0 °F 19.6 °F 84% 29.73 in 2.5 mi NNE 4.6 mph - N/A Snow Light Snow
7:55 PM 23.5 °F 17.6 °F 19.8 °F 85% 29.73 in 1.5 mi NE 4.6 mph - N/A Snow Light Snow
8:15 PM 23.0 °F 17.0 °F 19.4 °F 86% 29.73 in 2.5 mi NE 4.6 mph - N/A Snow Light Snow
8:35 PM 23.0 °F 17.0 °F 19.2 °F 85% 29.73 in 1.8 mi NE 4.6 mph - N/A Snow Light Snow
8:55 PM 22.8 °F 15.5 °F 19.0 °F 85% 29.73 in 2.5 mi NE 5.8 mph - N/A Snow Light Snow
9:15 PM 23.0 °F 15.8 °F 18.5 °F 83% 29.73 in 4.0 mi NE 5.8 mph - N/A Snow Light Snow
9:35 PM 22.6 °F 15.3 °F 18.3 °F 83% 29.73 in 2.0 mi NE 5.8 mph - N/A Snow Light Snow
9:55 PM 22.5 °F 15.1 °F 18.5 °F 85% 29.73 in 2.0 mi NE 5.8 mph - N/A Snow Light Snow
10:15 PM 22.1 °F 14.7 °F 18.5 °F 86% 29.72 in 2.5 mi NE 5.8 mph - N/A Snow Light Snow
10:35 PM 22.1 °F 14.7 °F 18.5 °F 86% 29.72 in 2.5 mi NE 5.8 mph - N/A Snow Light Snow
11:15 PM 21.7 °F 15.5 °F 18.1 °F 86% 29.71 in 2.0 mi NNE 4.6 mph - N/A Snow Light Snow
11:35 PM 21.7 °F 17.0 °F 18.3 °F 87% 29.70 in 1.8 mi NNE 3.5 mph - N/A Snow Light Snow
11:55 PM 21.7 °F - 18.3 °F 87% 29.70 in 1.2 mi Calm Calm - N/A Snow Light Snow